Regional Weather Roundup
Issued by NWS Goodland, KS

Home | Current Version | Previous Version | Graphics & Text | Print | Product List | Glossary On
Versions: 1 2 3 4 5 6 7 8 9 10 11 12 13 14 15 16 17 18 19 20 21 22 23 24 25 26 27 28 29 30 31 32 33 34 35 36 37 38 39 40 41 42 43 44 45 46 47 48 49 50
364
ASUS43 KGLD 260008
RWRGLD

GOODLAND FORECAST AREA HOURLY WEATHER ROUNDUP
NATIONAL WEATHER SERVICE GOODLAND KS
600 PM MDT WED MAY 25 2016

...OFFICIAL OBSERVATIONS...

CITY           SKY/WX    TMP DP  RH WIND       PRES   REMARKS
GOODLAND KS    SUNNY     78  43  28 S7        29.89R
HILL CITY KS   MOSUNNY   75  62  64 VRB5      29.86S
IMPERIAL NEB   TSTM      54  48  80 NW24G48   29.95R
MCCOOK NEB     SUNNY     78  55  44 CALM      29.85S
AKRON CO       CLOUDY    62  43  49 NE10      29.95R
BURLINGTON CO  SUNNY     79  36  21 S12       29.90F
LIMON CO       MOSUNNY   70  39  32 NE7       29.93F
$$

...UNOFFICIAL OBSERVATIONS...

CITY           SKY/WX    TMP DP  RH WIND       PRES   REMARKS
GOVE KS          N/A     79  32  18 MISG        N/A
LENORA KS        N/A     76  32  20 MISG        N/A
SHARON SPRINGS   N/A     82  46  28 SE5         N/A
KIT CARSON CO    N/A     82  34  18 MISG        N/A
YUMA CO          N/A     64  46  51 NE14        N/A
$$




USA.gov is the U.S. government's official web portal to all federal, state and local government web resources and services.